<?xml version="1.0" encoding="UTF-8" standalone="no" ?>
<gpx xmlns="http://www.topografix.com/GPX/1/1" xmlns:xsi="http://www.w3.org/2001/XMLSchema-instance" xsi:schemaLocation="http://www.topografix.com/GPX/1/1 http://www.topografix.com/GPX/1/1/gpx.xsd" version="1.1" creator="VisuGPX - https://www.visugpx.com">
  <metadata>
    <name>Sautron AutourCens_7-11km</name>
    <desc><![CDATA[gnerando idor:6690004_6690109_8373530_14186267_]]></desc>
  </metadata>
  <trk>
    <name><![CDATA[Sautron_CensEtPaysNantais_12km-14186267]]></name>
    <extensions>
      <line xmlns="http://www.topografix.com/GPX/gpx_style/0/2">
        <color>00FF00</color>
        <width>4</width>
      </line>
    </extensions>
    <trkseg>
      <trkpt lat="47.2685" lon="-1.6714">
        <ele>40</ele>
        <time>2023-11-13T11:11:16Z</time>
      </trkpt>
      <trkpt lat="47.26894" lon="-1.67141">
        <ele>41</ele>
        <time>2023-11-13T11:12:15Z</time>
      </trkpt>
      <trkpt lat="47.26931" lon="-1.66912">
        <ele>43</ele>
        <time>2023-11-13T11:15:48Z</time>
      </trkpt>
      <trkpt lat="47.26905" lon="-1.66814">
        <ele>42</ele>
        <time>2023-11-13T11:17:23Z</time>
      </trkpt>
      <trkpt lat="47.26856" lon="-1.66774">
        <ele>41</ele>
        <time>2023-11-13T11:18:38Z</time>
      </trkpt>
      <trkpt lat="47.26828" lon="-1.66751">
        <ele>39</ele>
        <time>2023-11-13T11:19:21Z</time>
      </trkpt>
      <trkpt lat="47.26757" lon="-1.66601">
        <ele>42</ele>
        <time>2023-11-13T11:22:06Z</time>
      </trkpt>
      <trkpt lat="47.26745" lon="-1.666">
        <ele>42</ele>
        <time>2023-11-13T11:22:22Z</time>
      </trkpt>
      <trkpt lat="47.2672" lon="-1.66622">
        <ele>45</ele>
        <time>2023-11-13T11:23:01Z</time>
      </trkpt>
      <trkpt lat="47.26691" lon="-1.66594">
        <ele>46</ele>
        <time>2023-11-13T11:23:47Z</time>
      </trkpt>
      <trkpt lat="47.2667" lon="-1.66546">
        <ele>46</ele>
        <time>2023-11-13T11:24:39Z</time>
      </trkpt>
      <trkpt lat="47.26673" lon="-1.66533">
        <ele>45</ele>
        <time>2023-11-13T11:24:52Z</time>
      </trkpt>
      <trkpt lat="47.26602" lon="-1.66244">
        <ele>40</ele>
        <time>2023-11-13T11:29:30Z</time>
      </trkpt>
      <trkpt lat="47.26623" lon="-1.66167">
        <ele>41</ele>
        <time>2023-11-13T11:30:45Z</time>
      </trkpt>
      <trkpt lat="47.26651" lon="-1.66132">
        <ele>44</ele>
        <time>2023-11-13T11:31:34Z</time>
      </trkpt>
      <trkpt lat="47.26618" lon="-1.66063">
        <ele>43</ele>
        <time>2023-11-13T11:32:51Z</time>
      </trkpt>
      <trkpt lat="47.26539" lon="-1.66046">
        <ele>36</ele>
        <time>2023-11-13T11:34:37Z</time>
      </trkpt>
      <trkpt lat="47.26518" lon="-1.65964">
        <ele>33</ele>
        <time>2023-11-13T11:35:56Z</time>
      </trkpt>
      <trkpt lat="47.26601" lon="-1.65937">
        <ele>40</ele>
        <time>2023-11-13T11:37:50Z</time>
      </trkpt>
      <trkpt lat="47.26699" lon="-1.659">
        <ele>49</ele>
        <time>2023-11-13T11:40:05Z</time>
      </trkpt>
      <trkpt lat="47.26817" lon="-1.65896">
        <ele>48</ele>
        <time>2023-11-13T11:42:42Z</time>
      </trkpt>
      <trkpt lat="47.26884" lon="-1.65872">
        <ele>49</ele>
        <time>2023-11-13T11:44:14Z</time>
      </trkpt>
      <trkpt lat="47.26896" lon="-1.65794">
        <ele>46</ele>
        <time>2023-11-13T11:45:27Z</time>
      </trkpt>
      <trkpt lat="47.26875" lon="-1.65714">
        <ele>40</ele>
        <time>2023-11-13T11:46:44Z</time>
      </trkpt>
      <trkpt lat="47.26887" lon="-1.65686">
        <ele>39</ele>
        <time>2023-11-13T11:47:14Z</time>
      </trkpt>
      <trkpt lat="47.27" lon="-1.65735">
        <ele>47</ele>
        <time>2023-11-13T11:49:52Z</time>
      </trkpt>
      <trkpt lat="47.27034" lon="-1.65737">
        <ele>48</ele>
        <time>2023-11-13T11:50:37Z</time>
      </trkpt>
      <trkpt lat="47.27049" lon="-1.65695">
        <ele>48</ele>
        <time>2023-11-13T11:51:20Z</time>
      </trkpt>
      <trkpt lat="47.27041" lon="-1.65652">
        <ele>48</ele>
        <time>2023-11-13T11:52:00Z</time>
      </trkpt>
      <trkpt lat="47.26923" lon="-1.65617">
        <ele>41</ele>
        <time>2023-11-13T11:54:41Z</time>
      </trkpt>
      <trkpt lat="47.26856" lon="-1.65546">
        <ele>33</ele>
        <time>2023-11-13T11:56:31Z</time>
      </trkpt>
      <trkpt lat="47.26779" lon="-1.65544">
        <ele>36</ele>
        <time>2023-11-13T11:58:14Z</time>
      </trkpt>
      <trkpt lat="47.267" lon="-1.65631">
        <ele>41</ele>
        <time>2023-11-13T12:00:26Z</time>
      </trkpt>
      <trkpt lat="47.26586" lon="-1.65602">
        <ele>46</ele>
        <time>2023-11-13T12:03:00Z</time>
      </trkpt>
      <trkpt lat="47.26558" lon="-1.65524">
        <ele>49</ele>
        <time>2023-11-13T12:04:20Z</time>
      </trkpt>
      <trkpt lat="47.26596" lon="-1.65261">
        <ele>56</ele>
        <time>2023-11-13T12:08:23Z</time>
      </trkpt>
      <trkpt lat="47.26646" lon="-1.65272">
        <ele>52</ele>
        <time>2023-11-13T12:09:31Z</time>
      </trkpt>
      <trkpt lat="47.26682" lon="-1.65246">
        <ele>49</ele>
        <time>2023-11-13T12:10:24Z</time>
      </trkpt>
      <trkpt lat="47.26729" lon="-1.65278">
        <ele>42</ele>
        <time>2023-11-13T12:11:33Z</time>
      </trkpt>
      <trkpt lat="47.26751" lon="-1.65308">
        <ele>39</ele>
        <time>2023-11-13T12:12:13Z</time>
      </trkpt>
      <trkpt lat="47.26763" lon="-1.6526">
        <ele>38</ele>
        <time>2023-11-13T12:13:00Z</time>
      </trkpt>
      <trkpt lat="47.26784" lon="-1.65177">
        <ele>39</ele>
        <time>2023-11-13T12:14:20Z</time>
      </trkpt>
      <trkpt lat="47.26823" lon="-1.65133">
        <ele>35</ele>
        <time>2023-11-13T12:15:25Z</time>
      </trkpt>
      <trkpt lat="47.26857" lon="-1.6502">
        <ele>39</ele>
        <time>2023-11-13T12:17:17Z</time>
      </trkpt>
      <trkpt lat="47.26883" lon="-1.64936">
        <ele>40</ele>
        <time>2023-11-13T12:18:41Z</time>
      </trkpt>
      <trkpt lat="47.26919" lon="-1.64835">
        <ele>39</ele>
        <time>2023-11-13T12:20:24Z</time>
      </trkpt>
      <trkpt lat="47.26958" lon="-1.6482">
        <ele>37</ele>
        <time>2023-11-13T12:21:18Z</time>
      </trkpt>
      <trkpt lat="47.26994" lon="-1.64609">
        <ele>37</ele>
        <time>2023-11-13T12:24:35Z</time>
      </trkpt>
      <trkpt lat="47.26957" lon="-1.64527">
        <ele>43</ele>
        <time>2023-11-13T12:26:04Z</time>
      </trkpt>
      <trkpt lat="47.2699" lon="-1.64474">
        <ele>40</ele>
        <time>2023-11-13T12:27:09Z</time>
      </trkpt>
      <trkpt lat="47.27022" lon="-1.64388">
        <ele>40</ele>
        <time>2023-11-13T12:28:38Z</time>
      </trkpt>
      <trkpt lat="47.27016" lon="-1.64294">
        <ele>40</ele>
        <time>2023-11-13T12:30:04Z</time>
      </trkpt>
      <trkpt lat="47.26993" lon="-1.64217">
        <ele>40</ele>
        <time>2023-11-13T12:31:20Z</time>
      </trkpt>
      <trkpt lat="47.26958" lon="-1.64161">
        <ele>41</ele>
        <time>2023-11-13T12:32:29Z</time>
      </trkpt>
      <trkpt lat="47.26938" lon="-1.64088">
        <ele>42</ele>
        <time>2023-11-13T12:33:40Z</time>
      </trkpt>
      <trkpt lat="47.26949" lon="-1.64028">
        <ele>44</ele>
        <time>2023-11-13T12:34:36Z</time>
      </trkpt>
      <trkpt lat="47.26914" lon="-1.63972">
        <ele>40</ele>
        <time>2023-11-13T12:35:45Z</time>
      </trkpt>
      <trkpt lat="47.26897" lon="-1.63929">
        <ele>41</ele>
        <time>2023-11-13T12:36:30Z</time>
      </trkpt>
      <trkpt lat="47.26839" lon="-1.63912">
        <ele>40</ele>
        <time>2023-11-13T12:37:49Z</time>
      </trkpt>
      <trkpt lat="47.2685" lon="-1.63858">
        <ele>44</ele>
        <time>2023-11-13T12:38:40Z</time>
      </trkpt>
      <trkpt lat="47.26879" lon="-1.63837">
        <ele>46</ele>
        <time>2023-11-13T12:39:23Z</time>
      </trkpt>
      <trkpt lat="47.27002" lon="-1.6389">
        <ele>53</ele>
        <time>2023-11-13T12:42:14Z</time>
      </trkpt>
      <trkpt lat="47.27057" lon="-1.63896">
        <ele>54</ele>
        <time>2023-11-13T12:43:28Z</time>
      </trkpt>
      <trkpt lat="47.27146" lon="-1.64055">
        <ele>51</ele>
        <time>2023-11-13T12:46:35Z</time>
      </trkpt>
      <trkpt lat="47.27256" lon="-1.64292">
        <ele>48</ele>
        <time>2023-11-13T12:50:55Z</time>
      </trkpt>
      <trkpt lat="47.27412" lon="-1.64494">
        <ele>54</ele>
        <time>2023-11-13T12:55:32Z</time>
      </trkpt>
      <trkpt lat="47.27475" lon="-1.64489">
        <ele>57</ele>
        <time>2023-11-13T12:56:56Z</time>
      </trkpt>
      <trkpt lat="47.27553" lon="-1.64442">
        <ele>60</ele>
        <time>2023-11-13T12:58:48Z</time>
      </trkpt>
      <trkpt lat="47.27563" lon="-1.64558">
        <ele>58</ele>
        <time>2023-11-13T13:00:34Z</time>
      </trkpt>
      <trkpt lat="47.27552" lon="-1.64644">
        <ele>58</ele>
        <time>2023-11-13T13:01:54Z</time>
      </trkpt>
      <trkpt lat="47.27525" lon="-1.64841">
        <ele>62</ele>
        <time>2023-11-13T13:04:56Z</time>
      </trkpt>
      <trkpt lat="47.27531" lon="-1.65">
        <ele>61</ele>
        <time>2023-11-13T13:07:20Z</time>
      </trkpt>
      <trkpt lat="47.27554" lon="-1.65124">
        <ele>62</ele>
        <time>2023-11-13T13:09:16Z</time>
      </trkpt>
      <trkpt lat="47.27637" lon="-1.65288">
        <ele>60</ele>
        <time>2023-11-13T13:12:21Z</time>
      </trkpt>
      <trkpt lat="47.2766" lon="-1.65334">
        <ele>59</ele>
        <time>2023-11-13T13:13:13Z</time>
      </trkpt>
      <trkpt lat="47.27677" lon="-1.6532">
        <ele>59</ele>
        <time>2023-11-13T13:13:39Z</time>
      </trkpt>
      <trkpt lat="47.2769" lon="-1.65343">
        <ele>59</ele>
        <time>2023-11-13T13:14:06Z</time>
      </trkpt>
      <trkpt lat="47.27685" lon="-1.65359">
        <ele>58</ele>
        <time>2023-11-13T13:14:22Z</time>
      </trkpt>
      <trkpt lat="47.27707" lon="-1.65436">
        <ele>59</ele>
        <time>2023-11-13T13:15:38Z</time>
      </trkpt>
      <trkpt lat="47.2786" lon="-1.65463">
        <ele>60</ele>
        <time>2023-11-13T13:19:03Z</time>
      </trkpt>
      <trkpt lat="47.27905" lon="-1.65511">
        <ele>61</ele>
        <time>2023-11-13T13:20:18Z</time>
      </trkpt>
      <trkpt lat="47.27918" lon="-1.65656">
        <ele>62</ele>
        <time>2023-11-13T13:22:30Z</time>
      </trkpt>
      <trkpt lat="47.27912" lon="-1.65755">
        <ele>63</ele>
        <time>2023-11-13T13:24:00Z</time>
      </trkpt>
      <trkpt lat="47.27926" lon="-1.65984">
        <ele>65</ele>
        <time>2023-11-13T13:27:28Z</time>
      </trkpt>
      <trkpt lat="47.27924" lon="-1.66007">
        <ele>65</ele>
        <time>2023-11-13T13:27:49Z</time>
      </trkpt>
      <trkpt lat="47.27952" lon="-1.66085">
        <ele>65</ele>
        <time>2023-11-13T13:29:09Z</time>
      </trkpt>
      <trkpt lat="47.28128" lon="-1.66084">
        <ele>64</ele>
        <time>2023-11-13T13:33:04Z</time>
      </trkpt>
      <trkpt lat="47.28186" lon="-1.66382">
        <ele>63</ele>
        <time>2023-11-13T13:37:45Z</time>
      </trkpt>
      <trkpt lat="47.27989" lon="-1.66504">
        <ele>64</ele>
        <time>2023-11-13T13:42:30Z</time>
      </trkpt>
      <trkpt lat="47.28098" lon="-1.66648">
        <ele>62</ele>
        <time>2023-11-13T13:45:45Z</time>
      </trkpt>
      <trkpt lat="47.2804" lon="-1.66937">
        <ele>62</ele>
        <time>2023-11-13T13:50:18Z</time>
      </trkpt>
      <trkpt lat="47.2799" lon="-1.67176">
        <ele>62</ele>
        <time>2023-11-13T13:54:04Z</time>
      </trkpt>
      <trkpt lat="47.27923" lon="-1.67419">
        <ele>62</ele>
        <time>2023-11-13T13:58:02Z</time>
      </trkpt>
      <trkpt lat="47.2801" lon="-1.67473">
        <ele>59</ele>
        <time>2023-11-13T14:00:08Z</time>
      </trkpt>
      <trkpt lat="47.27991" lon="-1.67744">
        <ele>57</ele>
        <time>2023-11-13T14:04:14Z</time>
      </trkpt>
      <trkpt lat="47.27869" lon="-1.67773">
        <ele>59</ele>
        <time>2023-11-13T14:06:59Z</time>
      </trkpt>
      <trkpt lat="47.27827" lon="-1.67767">
        <ele>61</ele>
        <time>2023-11-13T14:07:56Z</time>
      </trkpt>
      <trkpt lat="47.27721" lon="-1.67888">
        <ele>59</ele>
        <time>2023-11-13T14:10:54Z</time>
      </trkpt>
      <trkpt lat="47.2763" lon="-1.68015">
        <ele>62</ele>
        <time>2023-11-13T14:13:42Z</time>
      </trkpt>
      <trkpt lat="47.27557" lon="-1.68014">
        <ele>63</ele>
        <time>2023-11-13T14:15:19Z</time>
      </trkpt>
      <trkpt lat="47.27552" lon="-1.68043">
        <ele>62</ele>
        <time>2023-11-13T14:15:46Z</time>
      </trkpt>
      <trkpt lat="47.27531" lon="-1.68047">
        <ele>62</ele>
        <time>2023-11-13T14:16:14Z</time>
      </trkpt>
      <trkpt lat="47.2751" lon="-1.68167">
        <ele>60</ele>
        <time>2023-11-13T14:18:07Z</time>
      </trkpt>
      <trkpt lat="47.27503" lon="-1.68338">
        <ele>57</ele>
        <time>2023-11-13T14:20:42Z</time>
      </trkpt>
      <trkpt lat="47.27474" lon="-1.68406">
        <ele>51</ele>
        <time>2023-11-13T14:21:55Z</time>
      </trkpt>
      <trkpt lat="47.2747" lon="-1.68485">
        <ele>48</ele>
        <time>2023-11-13T14:23:06Z</time>
      </trkpt>
      <trkpt lat="47.27357" lon="-1.68643">
        <ele>54</ele>
        <time>2023-11-13T14:26:34Z</time>
      </trkpt>
      <trkpt lat="47.27323" lon="-1.68694">
        <ele>56</ele>
        <time>2023-11-13T14:27:39Z</time>
      </trkpt>
      <trkpt lat="47.27255" lon="-1.6874">
        <ele>61</ele>
        <time>2023-11-13T14:29:19Z</time>
      </trkpt>
      <trkpt lat="47.27214" lon="-1.68799">
        <ele>64</ele>
        <time>2023-11-13T14:30:35Z</time>
      </trkpt>
      <trkpt lat="47.2717" lon="-1.68873">
        <ele>67</ele>
        <time>2023-11-13T14:32:04Z</time>
      </trkpt>
      <trkpt lat="47.27157" lon="-1.68867">
        <ele>67</ele>
        <time>2023-11-13T14:32:22Z</time>
      </trkpt>
      <trkpt lat="47.27119" lon="-1.68811">
        <ele>67</ele>
        <time>2023-11-13T14:33:34Z</time>
      </trkpt>
      <trkpt lat="47.27078" lon="-1.68776">
        <ele>66</ele>
        <time>2023-11-13T14:34:37Z</time>
      </trkpt>
      <trkpt lat="47.27114" lon="-1.68704">
        <ele>65</ele>
        <time>2023-11-13T14:35:58Z</time>
      </trkpt>
      <trkpt lat="47.27074" lon="-1.68621">
        <ele>64</ele>
        <time>2023-11-13T14:37:31Z</time>
      </trkpt>
      <trkpt lat="47.27099" lon="-1.68553">
        <ele>61</ele>
        <time>2023-11-13T14:38:41Z</time>
      </trkpt>
      <trkpt lat="47.27098" lon="-1.68513">
        <ele>59</ele>
        <time>2023-11-13T14:39:17Z</time>
      </trkpt>
      <trkpt lat="47.27168" lon="-1.685">
        <ele>57</ele>
        <time>2023-11-13T14:40:51Z</time>
      </trkpt>
      <trkpt lat="47.27211" lon="-1.68429">
        <ele>55</ele>
        <time>2023-11-13T14:42:17Z</time>
      </trkpt>
      <trkpt lat="47.27139" lon="-1.68277">
        <ele>47</ele>
        <time>2023-11-13T14:45:05Z</time>
      </trkpt>
      <trkpt lat="47.27068" lon="-1.68175">
        <ele>49</ele>
        <time>2023-11-13T14:47:17Z</time>
      </trkpt>
      <trkpt lat="47.27078" lon="-1.68138">
        <ele>46</ele>
        <time>2023-11-13T14:47:53Z</time>
      </trkpt>
      <trkpt lat="47.27031" lon="-1.68027">
        <ele>53</ele>
        <time>2023-11-13T14:49:52Z</time>
      </trkpt>
      <trkpt lat="47.27039" lon="-1.67914">
        <ele>52</ele>
        <time>2023-11-13T14:51:35Z</time>
      </trkpt>
      <trkpt lat="47.27103" lon="-1.67742">
        <ele>49</ele>
        <time>2023-11-13T14:54:32Z</time>
      </trkpt>
      <trkpt lat="47.27101" lon="-1.67638">
        <ele>47</ele>
        <time>2023-11-13T14:56:07Z</time>
      </trkpt>
      <trkpt lat="47.2707" lon="-1.67475">
        <ele>42</ele>
        <time>2023-11-13T14:58:40Z</time>
      </trkpt>
      <trkpt lat="47.27071" lon="-1.67353">
        <ele>39</ele>
        <time>2023-11-13T15:00:30Z</time>
      </trkpt>
      <trkpt lat="47.27116" lon="-1.67354">
        <ele>41</ele>
        <time>2023-11-13T15:01:30Z</time>
      </trkpt>
      <trkpt lat="47.27136" lon="-1.67252">
        <ele>44</ele>
        <time>2023-11-13T15:03:06Z</time>
      </trkpt>
      <trkpt lat="47.27104" lon="-1.67193">
        <ele>46</ele>
        <time>2023-11-13T15:04:15Z</time>
      </trkpt>
      <trkpt lat="47.27053" lon="-1.67182">
        <ele>44</ele>
        <time>2023-11-13T15:05:24Z</time>
      </trkpt>
      <trkpt lat="47.26987" lon="-1.67183">
        <ele>41</ele>
        <time>2023-11-13T15:06:52Z</time>
      </trkpt>
      <trkpt lat="47.26926" lon="-1.67199">
        <ele>41</ele>
        <time>2023-11-13T15:08:14Z</time>
      </trkpt>
      <trkpt lat="47.2686" lon="-1.67167">
        <ele>40</ele>
        <time>2023-11-13T15:09:47Z</time>
      </trkpt>
      <trkpt lat="47.26849" lon="-1.67132">
        <ele>40</ele>
        <time>2023-11-13T15:10:22Z</time>
      </trkpt>
    </trkseg>
  </trk>
</gpx>